Weather in Jacobabad

Pakistan     28°16′55″N   68°26′10″E
temp.,
°C
wind,
m/s
gust,
m/s
humid.,
%
clouds,
%
prec.,
mm/h
press.,
hPa
HPBL,
m
9 may, sun
sun923:00+32sw51231100 0.0 1004364
02:00+31s1229100 0.0 100238
05:00+30ese473297 0.0 1003134
08:00+34se23275 0.0 1004334
11:00+39se12182 0.0 10041238
14:00+43wsw231156 0.0 10015136
17:00+43wnw339100 0.0 9984766
20:00+37ese341725 0.0 100084
10 may, mon
mon1023:00+35ssw361961 0.0 1000118
02:00+33s61023100 0.0 1000283
05:00+31s2430100 0.0 100077
08:00+33ssw2225100 0.0 1002299
11:00+40sw11160 0.0 10011175
14:00+43sse34105 0.0 9984742
17:00+43ssw43101 0.0 9964560
20:00+39s34130 0.0 99757
11 may, tue
tue1123:00+36ssw351738 0.0 99897
02:00+34ne331918 0.0 99733
05:00+33nnw11204 0.0 99811
08:00+36wsw22175 0.0 1000270
11:00+42nnw32127 0.0 10001591
14:00+44nnw33931 0.0 9975110
17:00+44wnw44833 0.0 9944985
20:00+39wnw9141491 0.0 997709
12 may, wed
wed1223:00+38nne141571 0.0 997115
02:00+35ssw33183 0.0 99748
05:00+33w22153 0.0 99719
08:00+37nw58110 0.0 998569
11:00+41nw4490 0.0 9982051
14:00+43nw3370 0.0 9954204
17:00+43nw2460 0.0 9934621
20:00+39wnw1170 0.0 99311
13 may, thu
thu1323:00+37nw4880 0.0 995134
02:00+34ne22100 0.0 99414
05:00+31e49220 0.0 996190
08:00+34e78310 0.0 998477
11:00+40e65180 0.0 9981693
14:00+43ene55130 0.0 9963533
17:00+43ne65120 0.0 9954226
20:00+38ene610190 0.0 995297